ROU1504 CYYZ-KEWR

Flight info

Callsign ROU1504
Flight time 0h 51m
Altitude 35000
Route KEPTA3 BMPAH DCT AEVON DCT GEE FLOSI4
Aircraft A321/M-SDE3FGHIRWY/LB1

Departure

Time 2026-05-06 14:52
Airport Toronto Pearson International Airport (CYYZ)

Arrival

Time 2026-05-06 15:43
Airport Newark Liberty International Airport (KEWR)
Time Latitude Longitude Altitude Speed Heading
2026-05-06 14:15 43.68023 -79.61362 564 ft 0 kts 15°
2026-05-06 14:40 43.68006 -79.61369 569 ft 3 kts 14°
2026-05-06 14:40 43.67983 -79.61378 567 ft 1 kts 23°
2026-05-06 14:41 43.67961 -79.61393 570 ft 4 kts 35°
2026-05-06 14:41 43.67939 -79.61413 571 ft 3 kts 23°
2026-05-06 14:41 43.67936 -79.61415 569 ft 2 kts 22°
2026-05-06 14:44 43.67938 -79.61414 571 ft 2 kts 24°
2026-05-06 14:45 43.67907 -79.61362 569 ft 8 kts 180°
2026-05-06 14:45 43.67856 -79.61378 565 ft 7 kts 202°
2026-05-06 14:45 43.67821 -79.61412 571 ft 6 kts 220°
2026-05-06 14:45 43.67771 -79.61481 564 ft 17 kts 226°
2026-05-06 14:46 43.67681 -79.61612 563 ft 19 kts 226°
2026-05-06 14:46 43.67590 -79.61722 567 ft 16 kts 218°
2026-05-06 14:46 43.67503 -79.61693 567 ft 16 kts 138°
2026-05-06 14:46 43.67417 -79.61580 565 ft 17 kts 136°
2026-05-06 14:47 43.67333 -79.61471 568 ft 18 kts 138°
2026-05-06 14:47 43.67237 -79.61350 564 ft 16 kts 142°
2026-05-06 14:47 43.67157 -79.61394 567 ft 12 kts 221°
2026-05-06 14:47 43.67101 -79.61467 572 ft 10 kts 223°
2026-05-06 14:48 43.67034 -79.61548 569 ft 18 kts 221°
2026-05-06 14:48 43.66915 -79.61698 571 ft 27 kts 223°
2026-05-06 14:48 43.66778 -79.61870 572 ft 26 kts 222°
2026-05-06 14:48 43.66646 -79.62037 565 ft 25 kts 222°
2026-05-06 14:49 43.66523 -79.62191 568 ft 23 kts 222°
2026-05-06 14:49 43.66403 -79.62341 566 ft 23 kts 222°
2026-05-06 14:49 43.66294 -79.62480 566 ft 19 kts 221°
2026-05-06 14:49 43.66214 -79.62489 562 ft 9 kts 141°
2026-05-06 14:50 43.66172 -79.62432 564 ft 7 kts 136°
2026-05-06 14:50 43.66142 -79.62393 567 ft 4 kts 137°
2026-05-06 14:50 43.66123 -79.62361 564 ft 7 kts 117°
2026-05-06 14:50 43.66134 -79.62295 569 ft 8 kts 54°
2026-05-06 14:51 43.66207 -79.62190 568 ft 35 kts 46°
2026-05-06 14:51 43.66550 -79.61693 563 ft 105 kts 46°
2026-05-06 14:51 43.67178 -79.60777 568 ft 156 kts 47°
2026-05-06 14:51 43.67962 -79.59601 936 ft 167 kts 50°
2026-05-06 14:52 43.68726 -79.58447 1754 ft 161 kts 47°
2026-05-06 14:52 43.69509 -79.57295 2272 ft 169 kts 47°
2026-05-06 14:52 43.70334 -79.56078 2647 ft 178 kts 47°
2026-05-06 14:52 43.70893 -79.54571 3111 ft 181 kts 81°
2026-05-06 14:53 43.70715 -79.52823 3442 ft 191 kts 114°
2026-05-06 14:53 43.70149 -79.51124 3794 ft 200 kts 115°
2026-05-06 14:53 43.69563 -79.49281 3957 ft 219 kts 114°
2026-05-06 14:53 43.68926 -79.47248 4098 ft 242 kts 114°
2026-05-06 14:54 43.68222 -79.45006 4407 ft 263 kts 114°
2026-05-06 14:54 43.67485 -79.42648 5100 ft 270 kts 114°
2026-05-06 14:54 43.66736 -79.40241 5869 ft 275 kts 113°
2026-05-06 14:54 43.65859 -79.37875 6614 ft 279 kts 125°
2026-05-06 14:55 43.64572 -79.35856 7269 ft 283 kts 142°
2026-05-06 14:55 43.63059 -79.34159 7961 ft 286 kts 145°
2026-05-06 14:55 43.61500 -79.32417 8673 ft 290 kts 146°
2026-05-06 14:55 43.59920 -79.30647 9374 ft 294 kts 147°
2026-05-06 14:56 43.58322 -79.28852 10058 ft 298 kts 147°
2026-05-06 14:56 43.56674 -79.27006 10371 ft 316 kts 147°
2026-05-06 14:56 43.54902 -79.25031 10493 ft 338 kts 147°
2026-05-06 14:56 43.53035 -79.22947 10869 ft 350 kts 147°
2026-05-06 14:57 43.51135 -79.20816 11456 ft 354 kts 147°
2026-05-06 14:57 43.49218 -79.18660 12107 ft 358 kts 147°
2026-05-06 14:57 43.47276 -79.16479 12750 ft 361 kts 147°
2026-05-06 14:57 43.45396 -79.14140 13377 ft 370 kts 139°
2026-05-06 14:58 43.43826 -79.11304 13962 ft 381 kts 127°
2026-05-06 14:58 43.42637 -79.07996 14494 ft 391 kts 117°
2026-05-06 14:58 43.41576 -79.04524 15039 ft 394 kts 118°
2026-05-06 14:58 43.40498 -79.01036 15604 ft 397 kts 118°
2026-05-06 14:59 43.39406 -78.97533 16139 ft 400 kts 118°
2026-05-06 14:59 43.38302 -78.94004 16696 ft 404 kts 118°
2026-05-06 14:59 43.37190 -78.90441 17214 ft 407 kts 118°
2026-05-06 14:59 43.36069 -78.86853 17747 ft 411 kts 118°
2026-05-06 15:00 43.34937 -78.83225 18254 ft 414 kts 118°
2026-05-06 15:00 43.33790 -78.79563 18587 ft 421 kts 118°
2026-05-06 15:00 43.32628 -78.75865 19078 ft 422 kts 118°
2026-05-06 15:00 43.31456 -78.72143 19516 ft 425 kts 118°
2026-05-06 15:01 43.30292 -78.68447 19915 ft 429 kts 118°
2026-05-06 15:01 43.29107 -78.64676 20306 ft 433 kts 118°
2026-05-06 15:01 43.27912 -78.60868 20712 ft 436 kts 118°
2026-05-06 15:01 43.26704 -78.57026 21119 ft 440 kts 118°
2026-05-06 15:02 43.25473 -78.53115 21517 ft 443 kts 118°
2026-05-06 15:02 43.24258 -78.49274 21915 ft 446 kts 118°
2026-05-06 15:02 43.23017 -78.45365 22337 ft 449 kts 118°
2026-05-06 15:02 43.21761 -78.41426 22740 ft 453 kts 118°
2026-05-06 15:03 43.20493 -78.37451 23152 ft 456 kts 118°
2026-05-06 15:03 43.19131 -78.33519 23517 ft 456 kts 124°
2026-05-06 15:03 43.17396 -78.29894 23848 ft 452 kts 134°
2026-05-06 15:03 43.15409 -78.26553 24208 ft 452 kts 135°
2026-05-06 15:04 43.13413 -78.23224 24587 ft 453 kts 135°
2026-05-06 15:04 43.11411 -78.19878 24965 ft 454 kts 136°
2026-05-06 15:04 43.09403 -78.16519 25333 ft 455 kts 136°
2026-05-06 15:04 43.07399 -78.13163 25703 ft 457 kts 136°
2026-05-06 15:05 43.05385 -78.09791 26060 ft 458 kts 136°
2026-05-06 15:05 43.03369 -78.06415 26418 ft 459 kts 136°
2026-05-06 15:05 43.01347 -78.03032 26774 ft 460 kts 136°
2026-05-06 15:05 42.99317 -77.99650 27092 ft 461 kts 137°
2026-05-06 15:06 42.97274 -77.96261 27417 ft 462 kts 137°
2026-05-06 15:06 42.95252 -77.92911 27725 ft 463 kts 137°
2026-05-06 15:06 42.93199 -77.89511 28059 ft 465 kts 137°
2026-05-06 15:06 42.91138 -77.86103 28366 ft 466 kts 137°
2026-05-06 15:07 42.89069 -77.82674 28678 ft 468 kts 137°
2026-05-06 15:07 42.87001 -77.79238 28990 ft 470 kts 136°
2026-05-06 15:07 42.85106 -77.75591 29256 ft 480 kts 128°
2026-05-06 15:07 42.83579 -77.71488 29528 ft 491 kts 118°
2026-05-06 15:08 42.82495 -77.67030 29790 ft 501 kts 109°
2026-05-06 15:08 42.81767 -77.62362 30038 ft 505 kts 107°
2026-05-06 15:08 42.81052 -77.57675 30208 ft 506 kts 108°
2026-05-06 15:08 42.80325 -77.52978 30528 ft 506 kts 108°
2026-05-06 15:09 42.79594 -77.48298 30857 ft 506 kts 108°
2026-05-06 15:09 42.78858 -77.43612 31135 ft 506 kts 108°
2026-05-06 15:09 42.78119 -77.38923 31378 ft 508 kts 108°
2026-05-06 15:09 42.77377 -77.34223 31618 ft 509 kts 108°
2026-05-06 15:10 42.76632 -77.29506 31853 ft 510 kts 108°
2026-05-06 15:10 42.75884 -77.24768 32126 ft 512 kts 108°
2026-05-06 15:10 42.75137 -77.20038 32380 ft 512 kts 109°
2026-05-06 15:10 42.74388 -77.15311 32718 ft 511 kts 109°
2026-05-06 15:11 42.73635 -77.10570 32991 ft 511 kts 109°
2026-05-06 15:11 42.72882 -77.05839 33241 ft 512 kts 109°
2026-05-06 15:11 42.72138 -77.01159 33483 ft 513 kts 109°
2026-05-06 15:11 42.71371 -76.96357 33764 ft 514 kts 109°
2026-05-06 15:12 42.70617 -76.91670 33999 ft 515 kts 109°
2026-05-06 15:12 42.69847 -76.86906 34201 ft 516 kts 109°
2026-05-06 15:12 42.69074 -76.82136 34342 ft 517 kts 108°
2026-05-06 15:12 42.68299 -76.77349 34518 ft 518 kts 108°
2026-05-06 15:13 42.67525 -76.72560 34705 ft 519 kts 108°
2026-05-06 15:13 42.66743 -76.67756 34834 ft 520 kts 109°
2026-05-06 15:13 42.65737 -76.63088 34857 ft 509 kts 118°
2026-05-06 15:14 42.62579 -76.54697 34842 ft 495 kts 130°
2026-05-06 15:14 42.58957 -76.46688 34841 ft 499 kts 130°
2026-05-06 15:15 42.55351 -76.38637 34838 ft 499 kts 130°
2026-05-06 15:15 42.51747 -76.30594 34844 ft 499 kts 130°
2026-05-06 15:16 42.48120 -76.22570 34846 ft 499 kts 130°
2026-05-06 15:16 42.44506 -76.14613 34835 ft 499 kts 130°
2026-05-06 15:17 42.40875 -76.06633 34830 ft 496 kts 130°
2026-05-06 15:17 42.37255 -75.98684 34837 ft 495 kts 130°
2026-05-06 15:18 42.33634 -75.90753 34781 ft 495 kts 130°
2026-05-06 15:18 42.30002 -75.82823 34793 ft 497 kts 130°
2026-05-06 15:19 42.26356 -75.74891 34791 ft 497 kts 130°
2026-05-06 15:19 42.22733 -75.67031 34811 ft 497 kts 130°
2026-05-06 15:20 42.19068 -75.59113 34820 ft 497 kts 130°
2026-05-06 15:20 42.15405 -75.51205 34818 ft 496 kts 130°
2026-05-06 15:21 42.11747 -75.43313 34824 ft 496 kts 130°
2026-05-06 15:21 42.08097 -75.35486 34799 ft 496 kts 130°
2026-05-06 15:22 42.04671 -75.27330 34814 ft 506 kts 124°
2026-05-06 15:22 42.01499 -75.18859 34823 ft 507 kts 124°
2026-05-06 15:23 41.98317 -75.10383 34824 ft 507 kts 124°
2026-05-06 15:23 41.95135 -75.01990 34820 ft 507 kts 123°
2026-05-06 15:24 41.91929 -74.93547 34837 ft 506 kts 124°
2026-05-06 15:24 41.88720 -74.85129 34845 ft 506 kts 124°
2026-05-06 15:25 41.85511 -74.76718 34849 ft 506 kts 123°
2026-05-06 15:25 41.82286 -74.68289 34852 ft 506 kts 124°
2026-05-06 15:26 41.79082 -74.59951 34861 ft 506 kts 124°
2026-05-06 15:26 41.75827 -74.51503 34617 ft 506 kts 124°
2026-05-06 15:26 41.74226 -74.47363 34138 ft 507 kts 124°
2026-05-06 15:27 41.72588 -74.43154 33342 ft 508 kts 125°
2026-05-06 15:27 41.70644 -74.39288 32705 ft 492 kts 139°
2026-05-06 15:27 41.68228 -74.36153 31917 ft 483 kts 147°
2026-05-06 15:27 41.65826 -74.32961 30633 ft 489 kts 140°
2026-05-06 15:28 41.63331 -74.30011 29466 ft 467 kts 157°
2026-05-06 15:28 41.60430 -74.28434 28339 ft 435 kts 178°
2026-05-06 15:28 41.57529 -74.28389 27299 ft 403 kts 199°
2026-05-06 15:28 41.55025 -74.29727 26300 ft 380 kts 216°
2026-05-06 15:29 41.52813 -74.31490 25316 ft 374 kts 214°
2026-05-06 15:29 41.50519 -74.33110 24361 ft 369 kts 212°
2026-05-06 15:29 41.48229 -74.34612 23454 ft 363 kts 211°
2026-05-06 15:29 41.45971 -74.36060 22426 ft 357 kts 211°
2026-05-06 15:30 41.43749 -74.37497 21393 ft 351 kts 211°
2026-05-06 15:30 41.41592 -74.38871 20406 ft 346 kts 206°
2026-05-06 15:30 41.39328 -74.39930 19442 ft 342 kts 204°
2026-05-06 15:30 41.37801 -74.40602 18806 ft 339 kts 203°
2026-05-06 15:31 41.35588 -74.41544 17855 ft 334 kts 202°
2026-05-06 15:31 41.32683 -74.42763 16455 ft 328 kts 203°
2026-05-06 15:31 41.31216 -74.43378 15775 ft 325 kts 202°
2026-05-06 15:32 41.26894 -74.45217 14205 ft 318 kts 202°
2026-05-06 15:32 41.24840 -74.46088 13556 ft 302 kts 202°
2026-05-06 15:32 41.22890 -74.46917 12852 ft 288 kts 202°
2026-05-06 15:32 41.21027 -74.47710 12164 ft 276 kts 201°
2026-05-06 15:33 41.19134 -74.48111 11111 ft 284 kts 183°
2026-05-06 15:33 41.17182 -74.47339 10386 ft 305 kts 157°
2026-05-06 15:33 41.15585 -74.45522 10243 ft 300 kts 143°
2026-05-06 15:33 41.14186 -74.43549 9979 ft 290 kts 143°
2026-05-06 15:34 41.12826 -74.41606 9788 ft 284 kts 143°
2026-05-06 15:34 41.11491 -74.39698 9660 ft 281 kts 143°
2026-05-06 15:34 41.10155 -74.37802 9395 ft 281 kts 143°
2026-05-06 15:34 41.08821 -74.35911 9004 ft 280 kts 143°
2026-05-06 15:35 41.07488 -74.34025 8589 ft 280 kts 143°
2026-05-06 15:35 41.06157 -74.32140 8214 ft 278 kts 143°
2026-05-06 15:35 41.04837 -74.30265 7776 ft 278 kts 142°
2026-05-06 15:35 41.03516 -74.28390 7363 ft 278 kts 142°
2026-05-06 15:36 41.02200 -74.26525 7013 ft 276 kts 142°
2026-05-06 15:36 41.00898 -74.24676 6637 ft 273 kts 142°
2026-05-06 15:36 40.99607 -74.22845 6331 ft 268 kts 142°
2026-05-06 15:36 40.98342 -74.21058 5798 ft 274 kts 142°
2026-05-06 15:37 40.97022 -74.19207 5320 ft 276 kts 142°
2026-05-06 15:37 40.95717 -74.17363 4911 ft 270 kts 141°
2026-05-06 15:37 40.94467 -74.15619 4522 ft 253 kts 146°
2026-05-06 15:37 40.93101 -74.14314 4160 ft 233 kts 159°
2026-05-06 15:38 40.91756 -74.13316 4022 ft 219 kts 158°
2026-05-06 15:38 40.90454 -74.12339 4015 ft 212 kts 159°
2026-05-06 15:38 40.89157 -74.11376 3688 ft 216 kts 159°
2026-05-06 15:38 40.87864 -74.10416 3373 ft 213 kts 158°
2026-05-06 15:39 40.86574 -74.09449 3222 ft 209 kts 159°
2026-05-06 15:39 40.85315 -74.08507 3130 ft 207 kts 160°
2026-05-06 15:39 40.83996 -74.07937 2958 ft 193 kts 179°
2026-05-06 15:39 40.82728 -74.08009 2785 ft 175 kts 198°
2026-05-06 15:40 40.81639 -74.08575 2577 ft 168 kts 207°
2026-05-06 15:40 40.80615 -74.09229 2375 ft 155 kts 208°
2026-05-06 15:40 40.79666 -74.09835 2167 ft 149 kts 207°
2026-05-06 15:40 40.78757 -74.10415 1975 ft 143 kts 207°
2026-05-06 15:41 40.77862 -74.10986 1781 ft 141 kts 209°
2026-05-06 15:41 40.76979 -74.11543 1618 ft 141 kts 207°
2026-05-06 15:41 40.76102 -74.12114 1537 ft 140 kts 208°
2026-05-06 15:41 40.75224 -74.12690 1370 ft 140 kts 207°
2026-05-06 15:42 40.74343 -74.13248 1099 ft 142 kts 207°
2026-05-06 15:42 40.73454 -74.13814 881 ft 141 kts 205°
2026-05-06 15:42 40.72578 -74.14362 678 ft 141 kts 210°
2026-05-06 15:42 40.71693 -74.14943 481 ft 142 kts 207°
2026-05-06 15:43 40.70787 -74.15489 296 ft 143 kts 202°
2026-05-06 15:43 40.69895 -74.16063 59 ft 142 kts 207°
2026-05-06 15:43 40.69075 -74.16588 22 ft 106 kts 205°
2026-05-06 15:43 40.68606 -74.16885 20 ft 48 kts 206°
2026-05-06 15:44 40.68387 -74.17038 21 ft 28 kts 212°
2026-05-06 15:44 40.68257 -74.17195 19 ft 22 kts 236°
2026-05-06 15:44 40.68212 -74.17289 20 ft 11 kts 237°
2026-05-06 15:44 40.68165 -74.17374 17 ft 12 kts 233°
2026-05-06 15:45 40.68153 -74.17462 16 ft 9 kts 282°
2026-05-06 15:45 40.68176 -74.17531 17 ft 7 kts 297°
2026-05-06 15:45 40.68195 -74.17580 18 ft 5 kts 296°
2026-05-06 15:45 40.68210 -74.17620 18 ft 4 kts 296°
2026-05-06 15:46 40.68237 -74.17672 18 ft 11 kts 315°
2026-05-06 15:46 40.68323 -74.17746 19 ft 15 kts 320°
2026-05-06 15:46 40.68363 -74.17868 20 ft 15 kts 283°
2026-05-06 15:46 40.68354 -74.17999 19 ft 12 kts 264°
2026-05-06 15:47 40.68414 -74.18061 20 ft 11 kts 349°
2026-05-06 15:47 40.68469 -74.18121 20 ft 13 kts 286°
2026-05-06 15:47 40.68512 -74.18198 19 ft 10 kts 335°
2026-05-06 15:47 40.68552 -74.18219 22 ft 1 kts 339°
2026-05-06 15:48 40.68553 -74.18220 21 ft 0 kts 338°